Cloud_Cover
92 92 92 88 88 88 88 88 80 64 48 48 36 32 36 36 48 64 76 68 64 64 44 32 24 24 8 8 12 12 8 32 56 68 76 64 68 80 92 92 88 80 92 80 80 88 68 68 48 48 88 88 88 68 20 8 0 8 32 20 48 88 92 92 92 76 32 80 92 92 92 92 92 92 92 92 92 92 92 92 92 92 92 92 92 92
92 92 92 92 92 92 88 88 88 76 76 64 48 44 48 56 64 68 68 56 64 68 48 36 20 8 12 12 24 36 32 44 32 20 36 64 64 68 92 92 88 80 80 88 88 80 80 64 48 56 80 88 88 76 44 20 8 12 48 44 68 92 92 92 80 68 64 88 92 92 92 92 92 92 92 92 92 92 92 92 92 92 92 92 92 92
92 92 92 92 92 92 88 92 88 80 68 68 68 68 76 76 68 68 68 48 56 64 48 56 36 24 36 24 44 56 56 64 44 20 0 64 88 92 92 92 88 88 92 92 92 92 92 80 80 76 64 76 80 76 64 36 24 24 56 56 76 92 92 92 64 44 80 88 92 92 92 92 92 92 92 92 92 92 92 92 92 92 92 92 92 92
92 92 92 92 92 92 92 92 88 80 80 76 76 80 80 76 76 76 76 64 56 44 20 36 48 64 56 48 56 64 64 68 56 32 8 36 68 92 92 92 76 68 88 88 92 88 88 88 88 88 80 76 76 68 64 48 44 48 64 76 88 92 92 88 76 56 48 68 88 92 92 92 92 92 92 92 92 92 92 92 92 92 92 92 92 92
88 92 92 92 92 92 92 92 92 88 80 80 80 88 88 80 80 80 80 64 56 56 44 20 36 64 56 64 56 48 56 68 68 56 36 20 48 92 92 92 92 80 56 80 88 88 92 88 88 92 92 92 88 68 48 48 48 48 56 80 88 92 92 88 88 80 68 76 80 88 88 92 92 92 92 92 92 92 92 92 92 92 92 92 92 92
92 92 92 92 92 92 92 92 88 88 88 88 88 88 88 80 80 80 76 64 64 68 64 44 44 56 56 48 36 32 48 68 76 76 64 36 48 68 92 80 80 80 56 88 92 92 92 92 88 92 92 92 88 80 76 56 48 44 48 80 92 92 92 92 92 92 92 88 88 88 68 80 88 92 92 92 92 92 92 92 92 92 92 92 92 92
92 92 92 92 92 92 92 88 88 88 88 88 88 88 88 88 88 88 76 68 68 68 64 64 56 56 56 32 20 12 20 48 64 68 64 48 48 64 92 68 76 88 88 92 92 92 92 92 92 92 92 92 92 92 92 80 68 64 64 76 88 92 92 92 88 80 92 92 92 88 76 80 80 80 88 88 92 92 92 92 92 92 92 92 92 92
92 92 92 88 88 88 88 88 88 92 92 92 92 88 88 80 80 88 80 76 76 68 64 44 44 48 48 36 24 20 8 48 68 68 64 64 76 88 92 80 88 92 92 92 92 92 92 92 92 92 92 92 92 92 92 92 92 88 88 76 80 92 92 92 88 88 92 92 92 92 92 92 88 80 68 68 80 88 80 92 92 92 92 92 92 88
92 92 88 92 88 80 80 88 92 92 92 92 92 88 88 76 76 76 88 80 68 64 76 36 32 36 36 36 24 20 8 64 80 80 76 80 88 92 88 92 92 92 92 92 92 92 88 92 92 92 88 88 92 92 88 88 92 92 92 88 88 92 92 92 92 92 92 92 92 92 92 92 92 92 80 68 64 64 64 68 76 80 76 92 80 68
92 92 92 88 88 80 88 92 92 92 92 92 88 88 88 80 76 76 80 80 76 76 76 48 44 48 56 44 32 24 12 64 88 88 88 92 92 88 80 92 92 92 92 92 92 92 92 92 92 92 80 88 88 88 80 88 92 88 76 80 80 88 92 92 92 92 92 92 92 92 92 92 92 92 80 68 64 56 44 44 44 48 48 64 64 48
92 92 92 92 92 92 92 92 92 92 88 88 88 88 88 88 88 80 76 88 88 88 80 64 64 68 76 68 48 36 24 56 76 92 92 92 92 92 88 92 92 92 92 92 92 92 92 92 92 92 92 88 88 88 88 88 88 80 64 64 68 76 92 92 92 92 92 92 92 92 92 92 88 80 68 48 44 44 24 56 48 36 32 36 36 44
92 92 92 92 92 92 92 92 92 92 92 92 88 76 76 80 88 88 88 88 88 88 76 64 68 76 88 80 76 56 44 64 80 88 88 92 92 92 92 92 92 92 92 92 92 92 92 92 92 92 92 92 92 92 92 92 80 76 76 68 64 68 88 88 92 92 92 92 92 92 92 92 88 76 64 48 36 32 24 56 64 56 36 24 20 24
92 92 92 92 92 92 92 92 92 92 92 92 88 80 76 80 88 88 88 88 88 88 80 76 76 76 80 80 80 76 68 88 92 88 76 88 92 92 92 92 92 92 92 92 92 92 92 92 92 92 92 92 92 92 92 92 88 80 76 68 56 56 88 92 92 92 92 92 92 88 80 76 76 68 56 56 48 44 36 44 48 44 24 20 20 20
92 92 92 92 92 92 92 92 92 92 92 92 92 92 88 92 92 92 88 88 88 88 92 88 80 76 48 80 88 80 88 88 88 80 76 88 92 92 92 92 92 92 92 92 92 92 92 92 92 92 92 92 92 92 92 92 88 76 64 64 64 64 56 80 92 92 92 80 68 68 68 68 68 68 68 68 64 56 56 64 56 48 56 36 24 20
92 92 92 92 92 92 92 92 92 92 92 92 92 92 92 92 92 88 88 92 92 88 88 80 76 68 48 76 76 68 88 92 88 80 68 88 92 92 92 92 92 92 92 92 92 92 92 92 92 92 92 92 92 92 92 88 80 76 56 48 44 48 64 48 68 88 64 56 56 56 64 64 76 88 88 88 76 68 64 64 76 76 36 56 64 48
92 92 92 92 92 92 92 92 92 92 92 92 92 92 92 92 92 92 92 92 92 92 88 88 76 56 32 68 76 68 76 80 80 80 88 92 92 92 92 92 92 92 92 92 92 92 92 92 92 92 92 92 92 92 92 80 76 68 64 48 44 48 76 68 64 56 64 64 68 76 68 76 76 80 80 76 80 80 64 56 44 32 20 20 20 20
92 92 92 92 92 92 92 92 92 92 92 92 92 92 92 92 92 92 92 88 88 92 88 88 76 64 48 68 76 76 80 80 88 88 92 92 92 92 92 92 92 92 92 92 92 92 92 92 92 92 92 92 92 92 80 76 68 64 64 56 56 56 48 68 68 68 68 76 76 68 76 80 88 88 76 76 68 68 64 56 44 24 20 20 12 12
92 92 92 92 92 92 92 92 92 92 92 92 92 92 92 92 92 92 92 92 92 88 88 80 80 76 64 88 68 56 76 88 92 92 92 92 92 92 92 92 92 92 92 92 92 92 92 92 92 92 92 92 92 88 80 76 68 68 64 56 48 44 44 44 36 44 48 56 64 64 56 76 80 80 80 76 64 56 56 36 24 24 20 20 12 12
92 92 92 92 92 92 92 92 92 92 92 92 92 92 92 92 92 92 92 92 92 88 88 88 88 88 88 80 64 48 80 88 92 92 92 92 92 92 92 92 92 92 92 92 92 92 92 92 92 92 92 92 88 80 76 76 68 64 56 44 44 36 36 32 36 48 48 56 56 48 44 32 32 44 68 68 68 64 48 48 36 32 24 20 20 12
92 92 92 92 92 92 92 92 92 92 92 92 92 92 92 92 92 92 92 92 92 92 88 88 88 88 68 76 76 76 88 92 92 92 92 92 92 92 92 92 92 92 92 92 92 92 92 92 92 92 92 92 92 88 80 76 68 56 48 44 36 36 36 44 48 56 56 48 48 48 44 36 32 36 68 76 68 68 64 48 44 36 24 24 20 20
92 92 88 88 92 92 92 92 92 92 92 92 92 92 92 92 92 92 92 92 92 88 88 88 92 92 88 80 76 76 80 92 92 92 92 92 92 92 92 92 92 92 92 92 92 92 92 92 92 92 92 92 92 92 80 76 68 68 64 56 48 44 48 44 36 36 36 56 56 48 48 48 48 48 36 48 56 56 56 44 36 36 32 36 32 24
92 88 88 88 88 88 80 88 88 92 92 92 92 92 92 92 92 92 92 88 88 88 88 92 88 80 76 68 68 80 92 92 92 92 92 88 92 92 80 92 88 88 92 92 92 92 92 92 92 92 92 92 92 92 92 88 88 80 64 56 56 48 48 56 48 48 56 64 56 44 44 48 48 44 36 36 32 32 36 32 32 32 36 44 36 36
88 80 80 80 80 80 80 88 88 92 92 92 92 92 92 92 92 92 92 92 88 88 80 88 88 80 76 76 80 92 92 92 92 92 88 92 92 88 80 92 92 88 92 92 92 92 92 92 92 92 92 92 92 92 92 92 92 92 88 92 76 64 64 68 64 64 68 64 56 48 48 44 44 48 36 32 24 24 24 24 24 20 36 32 32 24
80 80 80 80 80 80 80 88 88 88 92 92 92 92 92 92 92 88 88 88 88 80 80 76 76 76 68 68 68 80 92 88 92 92 92 92 88 80 76 80 88 88 92 88 92 92 92 92 92 92 92 92 92 92 92 92 92 92 92 88 88 92 92 92 92 92 92 92 80 76 76 64 56 48 44 32 24 24 20 12 12 12 8 0 0 0
88 88 88 88 80 80 88 88 88 92 92 92 92 92 92 92 92 92 92 92 80 76 68 68 68 68 64 68 80 80 76 88 92 92 92 88 88 88 76 76 76 80 88 80 88 92 92 92 92 92 92 92 92 92 92 92 92 92 92 80 80 88 88 88 88 92 92 92 92 92 92 80 80 76 56 36 32 32 24 24 20 12 12 0 0 0
92 92 92 88 88 88 92 92 92 92 92 92 92 92 92 92 92 92 92 92 80 68 64 64 64 64 80 80 88 88 68 88 92 92 88 88 88 88 68 88 80 68 76 64 68 88 92 88 88 92 92 88 88 92 92 92 92 92 92 92 92 88 76 80 80 88 88 92 92 92 92 92 92 92 92 68 56 36 24 24 24 20 12 0 0 0
92 92 92 92 92 92 92 92 92 92 92 92 92 88 88 88 88 92 88 88 80 68 76 76 76 76 76 80 88 88 92 92 92 92 92 88 88 88 80 80 76 64 48 44 48 64 80 64 64 76 80 68 76 88 92 88 88 92 92 92 92 92 88 88 88 88 92 92 92 92 92 92 92 92 92 92 76 48 32 24 20 20 8 0 0 0
92 92 92 92 92 92 92 92 92 92 92 88 80 80 76 80 80 80 80 80 80 80 80 80 80 80 88 88 88 88 92 80 80 92 92 80 80 80 88 56 48 48 44 36 32 32 36 44 44 44 48 48 56 68 80 76 80 88 92 92 92 92 92 88 88 88 92 92 92 92 92 92 92 92 92 92 88 76 64 44 32 20 12 12 12 0
92 92 92 92 88 80 88 92 92 92 88 88 80 76 68 76 68 64 56 68 76 76 76 80 80 88 92 92 88 88 88 76 76 88 92 80 80 80 68 44 36 36 32 24 20 20 20 12 20 32 32 24 24 36 56 56 64 80 88 92 92 92 92 88 92 92 92 92 92 92 92 92 92 92 92 92 92 92 92 68 56 44 32 24 20 12
80 76 80 80 76 64 68 76 76 76 76 68 68 68 68 68 64 48 44 44 48 64 80 88 88 80 92 92 88 88 80 64 56 68 88 80 80 76 56 56 44 24 24 20 20 12 8 0 0 12 20 20 12 12 20 24 44 64 80 76 76 88 92 80 80 88 88 88 88 80 80 92 92 92 88 92 92 92 92 80 76 76 68 32 12 12
68 64 68 68 64 56 64 64 64 64 56 56 56 64 64 56 56 56 48 48 48 64 80 88 88 88 88 80 80 76 68 44 36 44 64 76 80 80 76 56 32 20 24 20 20 20 12 8 0 0 8 8 8 8 8 20 20 24 36 32 36 48 56 44 44 44 48 44 48 64 80 88 88 88 88 92 92 92 92 92 92 88 88 48 24 12
68 64 64 64 64 64 68 64 64 64 64 56 48 48 56 48 48 56 56 48 56 64 68 80 88 88 88 88 76 68 48 36 44 48 32 56 68 64 44 24 20 20 32 12 12 20 20 12 8 0 0 0 8 8 12 24 32 24 20 20 12 12 12 8 8 8 8 0 8 24 56 56 68 80 88 92 92 92 92 92 92 88 76 56 44 24
68 64 64 56 56 64 68 68 68 68 64 56 48 44 44 44 48 48 48 48 56 56 64 68 76 80 80 80 76 68 56 44 36 44 56 64 56 36 20 20 12 20 12 12 12 12 12 20 12 8 0 0 8 8 12 24 32 32 32 20 12 12 8 8 0 0 8 0 8 8 12 12 24 32 36 64 80 92 88 88 80 68 80 80 68 56
68 64 64 56 56 64 64 64 68 64 64 64 56 48 44 44 44 48 56 48 56 56 64 64 64 64 56 56 48 48 48 36 44 64 76 48 32 20 20 12 12 12 12 8 8 8 8 12 20 20 8 8 8 8 8 12 20 20 32 32 24 12 8 12 8 0 0 0 0 0 8 0 0 0 0 12 36 56 48 64 64 64 88 88 88 80
64 64 64 64 64 64 64 64 56 56 56 64 64 56 48 48 48 56 68 68 64 64 56 56 56 48 44 44 44 36 32 20 44 68 76 32 20 12 12 12 8 8 8 8 8 8 8 8 20 24 12 8 8 0 0 8 8 8 20 36 36 24 20 24 12 0 0 0 0 0 0 0 0 0 0 0 8 12 8 12 20 20 24 32 44 56
68 64 64 64 64 64 56 56 56 56 56 56 64 64 64 64 64 68 76 76 76 68 68 64 48 36 32 32 36 36 20 36 56 68 76 24 12 12 12 8 8 0 8 8 8 0 8 12 24 32 32 32 20 8 0 0 0 0 0 20 20 20 36 32 32 20 12 0 0 0 0 0 0 0 0 0 0 0 0 0 0 0 0 0 8 32
76 68 64 64 56 56 56 56 56 56 56 64 64 68 76 68 76 76 80 80 76 68 64 64 56 48 44 24 20 24 20 24 44 56 68 24 12 12 12 8 8 0 0 8 8 12 32 12 12 12 12 12 8 0 0 0 0 0 0 0 0 0 12 8 20 32 24 8 0 0 0 0 8 0 0 8 0 0 0 0 0 0 0 0 0 8
76 64 56 64 64 56 56 56 56 56 56 76 80 80 80 76 76 76 76 76 64 56 48 48 56 56 56 44 32 20 12 32 36 44 56 20 8 8 8 20 24 24 0 0 8 12 12 12 12 8 8 0 0 8 24 8 0 0 0 0 0 0 0 20 24 32 32 12 8 8 8 8 20 32 32 12 8 0 0 0 0 0 0 0 0 0
56 64 68 56 56 64 64 76 76 76 88 88 80 76 76 68 68 64 64 64 56 48 44 32 32 36 32 36 44 44 44 36 36 36 44 12 8 8 8 20 32 24 0 0 8 8 12 12 8 8 8 0 0 0 0 20 24 20 8 0 0 0 0 0 0 12 32 24 20 12 12 8 20 24 20 20 12 0 0 0 0 0 0 0 0 0
48 56 68 80 88 92 88 88 80 80 92 92 88 80 76 68 64 64 56 56 48 44 44 36 36 44 36 44 48 48 48 44 44 44 36 36 20 8 8 8 20 32 32 24 12 8 8 8 8 0 0 0 0 0 0 0 0 0 8 0 0 0 0 0 0 8 32 36 36 32 12 8 20 32 24 32 20 8 0 0 0 0 0 0 0 0
92 88 80 92 88 88 80 76 76 80 92 80 76 68 68 48 44 44 44 48 36 20 20 20 20 20 12 12 24 36 36 44 44 44 36 44 36 24 8 8 12 20 32 36 20 8 8 8 0 0 0 0 0 0 0 0 0 0 0 0 0 0 0 0 12 32 32 36 44 36 36 12 8 8 8 8 20 24 0 0 0 0 8 8 0 0
92 92 92 92 88 80 80 88 92 88 80 76 76 68 56 48 44 36 32 20 20 24 20 12 12 12 12 12 12 8 8 32 44 44 44 44 44 36 8 8 12 20 24 32 32 20 0 0 0 0 0 0 0 0 0 0 0 0 0 0 0 0 0 0 0 20 36 36 32 24 20 12 12 12 8 0 0 0 0 24 24 12 12 12 20 20
92 92 92 88 80 80 92 92 88 80 80 80 76 64 56 56 48 44 36 24 36 48 36 36 24 12 12 12 12 8 8 0 20 36 56 56 56 56 48 48 32 12 8 12 8 8 24 32 32 24 0 0 0 0 0 0 0 0 0 0 0 0 0 0 8 20 20 32 24 8 8 12 12 12 12 32 36 32 12 32 24 20 8 8 12 20
92 92 92 92 88 88 92 88 88 80 76 80 76 68 68 80 80 68 48 44 64 80 56 44 24 8 8 8 8 8 8 8 8 20 48 56 56 56 56 56 32 8 0 0 0 0 20 32 32 20 0 0 0 0 0 0 0 0 0 0 0 0 0 0 0 12 20 20 20 12 8 24 32 36 36 12 20 32 32 12 8 8 0 12 20 12
92 92 92 88 88 88 88 88 88 92 80 80 76 76 88 80 76 68 68 68 76 76 48 48 24 8 12 12 12 12 12 12 8 12 32 48 64 64 64 56 56 48 0 0 0 0 0 8 12 20 20 32 32 20 0 0 0 0 0 0 0 0 0 0 0 12 12 20 20 12 8 20 32 32 12 8 0 0 0 0 0 0 0 0 12 24
92 92 88 80 88 88 92 92 92 92 80 80 80 80 80 76 76 80 88 80 80 80 64 36 24 32 76 80 76 64 32 20 20 20 20 20 36 48 64 56 56 56 64 64 64 48 8 0 0 8 24 32 32 20 8 0 0 0 0 0 0 0 0 0 0 8 12 12 12 12 12 8 12 20 8 8 8 8 0 0 0 0 0 0 0 0
92 92 88 80 88 92 92 92 92 92 92 88 88 80 80 76 80 80 76 80 88 88 80 88 80 80 76 76 56 48 76 76 44 20 20 44 44 36 56 56 56 56 56 56 56 56 64 32 32 32 20 24 20 8 0 0 0 0 0 0 0 0 0 0 0 0 0 8 8 12 12 24 20 8 8 8 8 8 0 0 0 0 0 0 0 0
80 80 80 80 88 92 92 92 92 92 92 92 92 88 80 80 76 76 88 80 80 88 88 88 80 80 80 68 68 80 80 76 44 24 32 36 36 36 44 48 56 56 56 56 56 56 56 56 56 56 56 56 44 24 0 0 0 0 0 0 0 0 0 0 0 0 0 0 8 12 24 12 12 8 8 8 12 20 12 8 0 0 0 0 0 0
88 88 88 92 88 88 92 92 92 92 92 92 88 88 88 80 80 80 88 88 88 88 88 88 80 76 76 76 80 80 76 68 56 44 48 44 32 32 32 36 36 36 44 48 44 44 36 44 48 56 56 44 32 12 0 0 0 0 0 0 0 0 0 0 0 0 0 0 0 12 32 32 24 20 8 8 20 24 12 12 8 0 0 8 8 12
92 92 92 88 88 88 92 92 92 92 92 88 88 88 88 80 88 88 88 88 88 88 88 88 80 76 76 80 76 68 64 76 80 80 76 64 48 44 48 44 20 0 0 20 12 0 0 12 24 36 36 24 20 12 0 0 0 0 0 8 8 0 0 0 0 0 0 0 8 12 32 44 44 32 20 20 20 24 20 20 20 20 12 24 24 20
92 92 92 92 92 92 92 92 92 92 92 92 92 92 88 80 88 88 88 88 88 92 88 88 80 76 68 76 68 64 68 64 68 76 64 64 56 48 48 36 12 0 0 0 0 0 0 0 0 0 0 44 36 12 0 0 0 0 0 0 0 0 0 0 0 0 0 0 8 12 24 36 36 36 48 32 24 24 20 24 24 24 20 32 36 36